STARLINK-1880 (47165 NORAD) Tracking and Keplerian Element Data

This shows tracking and keplerian element data for the satellite.

Feedback or suggestion? Click here.




ElementValue
Catalog47165
NameSTARLINK-1880
Epoch Orbit890
Epoch Day16.16667824
Epoch Year2021
RAAN98.2438
Inclination53.0561
Eccentricity0.0001172
Argument of Perigee70.0198
Mean Anonmoly211.1456
Mean Motion15.5438237
Decay Rate-0.01089593
L11 47165U 20088AV 21016.16667824 -.01089593 00000-0 -18013-1 0 9992
L22 47165 53.0561 98.2438 0001172 70.0198 211.1456 15.54382370 8900

Live tracking and technical data element details for STARLINK-1880 (NORAD 47165). STARLINK-1880 can be tracked NOW for your location showing map with azimuth and elevation plus other details from your city location.

Track the satellite on the map from your city or location and see movement details for azimuth, elevation, latitude, longitude, range, height, and movement on the map or in text.







IsCatalogInMostPopularTable: catalog: 47165, numindb: 20
Update: records affected: 1



GetName: 47165 STARLINK-1880

Hit Count: updated at: Sun, 17 Jan 2021 08:48:07 GMT